Change the Weather History Date:

Tuesday, March 12, 2013

  Actual Average Record
Temperature  
Mean Temperature 34 °F -  
Max Temperature 40 °F 51 °F 57 °F (1997)
Min Temperature 28 °F 39 °F 27 °F (2014)
Degree Days  
Heating Degree Days 31    
Moisture  
Dew Point 25 °F    
Average Humidity 69    
Maximum Humidity 93    
Minimum Humidity 44    
Precipitation  
Precipitation 0.00 in 0.07 in - ()
Sea Level Pressure  
Sea Level Pressure 30.03 in    
Wind  
Wind Speed 12 mph ()    
Max Wind Speed 21 mph    
Max Gust Speed -    
Visibility 6.4 miles    
Events Snow    
Averages and records for this station are not official NWS values.
T = Trace of Precipitation, MM = Missing Value Source: Averaged Metar Reports

Daily Weather History Graph

Daily Weather History Graph

Search for Another Location

Airport or City:

Trip Planner

Search our weather history database for the weather conditions in past years. The results will help you decide how hot, cold, wet, or windy it might be!

Date:

Astronomy

Mar. 12, 2013 Rise Set
Actual Time 6:46 AM GMT 6:24 PM GMT
Civil Twilight 6:12 AM GMT 6:58 PM GMT
Nautical Twilight 5:31 AM GMT 7:39 PM GMT
Astronomical Twilight 4:49 AM GMT 8:21 PM GMT
Moon 6:35 AM GMT (3/12) 7:40 PM GMT (3/12)
Length of Visible Light 12h 46m
Length of Day
11h 37m
New Moon, 1% of the Moon is Illuminated
Mar 12
New Moon
Mar 19
First Quarter
Mar 27
Full
Apr 3
Last Quarter
Apr 10
New

Hourly Weather History & Observations

Time (GMT) Temp. Windchill Dew Point Humidity Pressure Visibility Wind Dir Wind Speed Gust Speed Precip Events Conditions
12:00 AM 32 °F - 18 °F 44% 30.09 in 16 mi NE 17.9 mph - - Snow Light Snow Showers
12:00 AM 32.0 °F 20.5 °F 19.4 °F 60% 30.06 in 6.2 mi NE 18.4 mph - N/A Snow Light Snow Showers
12:30 AM 32.0 °F 19.8 °F 19.4 °F 60% 30.06 in 6.2 mi NE 20.7 mph - N/A   Mostly Cloudy
1:00 AM 32.0 °F 21.2 °F 19.4 °F 60% 30.06 in 6.2 mi NE 16.1 mph - N/A   Mostly Cloudy
1:30 AM 32.0 °F 21.2 °F 19.4 °F 60% 30.06 in 6.2 mi NE 16.1 mph - N/A   Mostly Cloudy
2:00 AM 32.0 °F 21.2 °F 19.4 °F 60% 30.06 in 6.2 mi NE 16.1 mph - N/A   Mostly Cloudy
2:30 AM 32.0 °F 22.1 °F 19.4 °F 60% 30.06 in 6.2 mi NE 13.8 mph - N/A   Mostly Cloudy
3:00 AM 32.0 °F 21.2 °F 19.4 °F 60% 30.06 in 6.2 mi NE 16.1 mph - N/A   Scattered Clouds
3:30 AM 32.0 °F 21.2 °F 21.2 °F 64% 30.06 in 6.2 mi NE 16.1 mph - N/A   Mostly Cloudy
4:00 AM 32.0 °F 21.2 °F 21.2 °F 64% 30.06 in 6.2 mi NE 16.1 mph - N/A   Mostly Cloudy
4:30 AM 32.0 °F 21.6 °F 23.0 °F 69% 30.06 in 6.2 mi NE 15.0 mph - N/A   Mostly Cloudy
5:00 AM 32.0 °F 22.1 °F 21.2 °F 64% 30.06 in 6.2 mi NNE 13.8 mph - N/A   Mostly Cloudy
5:30 AM 32.0 °F 21.6 °F 19.4 °F 60% 30.06 in 6.2 mi NNE 15.0 mph - N/A   Mostly Cloudy
6:00 AM 32 °F - 21 °F 53% 30.10 in 25 mi NNE 11.2 mph - -   Partly Cloudy
6:00 AM 32.0 °F 23.6 °F 21.2 °F 64% 30.06 in 6.2 mi NNE 10.4 mph - N/A   Mostly Cloudy
6:30 AM 28.4 °F 19.7 °F 23.0 °F 80% 30.06 in 6.2 mi North 9.2 mph - N/A   Partly Cloudy
7:00 AM 28.4 °F 19.1 °F 21.2 °F 74% 30.06 in 6.2 mi NNW 10.4 mph - N/A   Partly Cloudy
7:30 AM 28.4 °F 18.5 °F 21.2 °F 74% 30.06 in 6.2 mi NNW 11.5 mph - N/A   Partly Cloudy
8:00 AM 28.4 °F 18.5 °F 21.2 °F 74% 30.06 in 6.2 mi NNW 11.5 mph - N/A   Partly Cloudy
8:30 AM 28.4 °F 19.7 °F 21.2 °F 74% 30.09 in 6.2 mi NW 9.2 mph - N/A   Scattered Clouds
9:00 AM 32.0 °F 23.0 °F 23.0 °F 69% 30.06 in 6.2 mi NW 11.5 mph - N/A   Partly Cloudy
9:30 AM 33.8 °F 25.3 °F 23.0 °F 65% 30.06 in 6.2 mi North 11.5 mph - N/A   Partly Cloudy
10:30 AM 37.4 °F 29.3 °F 24.8 °F 60% 30.06 in 6.2 mi North 12.7 mph - N/A   Partly Cloudy
11:00 AM 37.4 °F 29.8 °F 23.0 °F 56% 30.06 in 6.2 mi North 11.5 mph - N/A   Partly Cloudy
11:30 AM 39.2 °F 30.8 °F 23.0 °F 52% 30.06 in 6.2 mi North 15.0 mph - N/A   Partly Cloudy
12:00 PM 40 °F - 26 °F 46% 30.08 in 31 mi North 13.4 mph - -   Partly Cloudy
12:00 PM 39.2 °F 31.6 °F 26.6 °F 61% 30.06 in 6.2 mi NNW 12.7 mph - N/A   Scattered Clouds
12:30 PM 39.2 °F 32.0 °F 26.6 °F 61% 30.06 in 6.2 mi NNW 11.5 mph - N/A   Mostly Cloudy
1:00 PM 37.4 °F 28.5 °F 26.6 °F 65% 30.04 in 6.2 mi NNW 15.0 mph - N/A   Mostly Cloudy
1:30 PM 39.2 °F 31.6 °F 26.6 °F 61% 30.04 in 6.2 mi NW 12.7 mph - N/A   Mostly Cloudy
2:00 PM 37.4 °F 29.3 °F 26.6 °F 65% 30.04 in 6.2 mi NW 12.7 mph - N/A   Mostly Cloudy
2:30 PM 37.4 °F 29.3 °F 26.6 °F 65% 30.04 in 6.2 mi NW 12.7 mph - N/A   Mostly Cloudy
3:00 PM 37.4 °F 29.8 °F 28.4 °F 70% 30.01 in 6.2 mi WNW 11.5 mph - N/A   Mostly Cloudy
3:30 PM 37.4 °F 29.3 °F 28.4 °F 70% 30.01 in 6.2 mi NW 12.7 mph - N/A   Mostly Cloudy
4:00 PM 37.4 °F 29.8 °F 28.4 °F 70% 30.01 in 6.2 mi NW 11.5 mph - N/A   Mostly Cloudy
4:30 PM 37.4 °F 30.3 °F 28.4 °F 70% 30.01 in 6.2 mi NW 10.4 mph - N/A   Mostly Cloudy
5:00 PM 37.4 °F 30.8 °F 28.4 °F 70% 29.98 in 6.2 mi NW 9.2 mph - N/A   Mostly Cloudy
5:30 PM 37.4 °F 32.1 °F 30.2 °F 75% 29.98 in 6.2 mi WNW 6.9 mph - N/A   Mostly Cloudy
6:00 PM 37 °F - 30 °F 67% 30.01 in 31 mi WNW 6.7 mph - -   Mostly Cloudy
6:00 PM 37.4 °F 32.8 °F 30.2 °F 75% 29.98 in 6.2 mi WNW 5.8 mph - N/A   Mostly Cloudy
6:30 PM 37.4 °F 32.8 °F 30.2 °F 75% 29.98 in 6.2 mi West 5.8 mph - N/A   Mostly Cloudy
7:00 PM 35.6 °F 30.7 °F 30.2 °F 81% 29.98 in 6.2 mi West 5.8 mph - N/A   Mostly Cloudy
7:30 PM 35.6 °F 30.7 °F 30.2 °F 81% 29.98 in 6.2 mi West 5.8 mph - N/A   Mostly Cloudy
8:00 PM 32.0 °F 26.4 °F 28.4 °F 87% 29.98 in 6.2 mi West 5.8 mph - N/A   Mostly Cloudy
8:30 PM 32.0 °F 26.4 °F 28.4 °F 87% 29.98 in 6.2 mi WNW 5.8 mph - N/A   Mostly Cloudy
9:00 PM 33.8 °F 27.0 °F 30.2 °F 87% 29.98 in 6.2 mi WNW 8.1 mph - N/A   Mostly Cloudy
9:30 PM 32.0 °F 25.6 °F 28.4 °F 87% 29.98 in 6.2 mi West 6.9 mph - N/A   Partly Cloudy
10:00 PM 30.2 °F 22.6 °F 28.4 °F 93% 29.98 in 6.2 mi West 8.1 mph - N/A   Partly Cloudy
10:30 PM 33.8 °F 25.8 °F 30.2 °F 87% 29.98 in 6.2 mi WNW 10.4 mph - N/A   Partly Cloudy
11:00 PM 32.0 °F 23.6 °F 30.2 °F 93% 29.98 in 6.2 mi WNW 10.4 mph - N/A   Scattered Clouds
11:30 PM 33.8 °F 26.4 °F 30.2 °F 87% 29.98 in 6.2 mi WNW 9.2 mph - N/A   Mostly Cloudy